Flag for India Weather past 2 weeks in Panipat, Haryana, India

Now
81 °F

Haze.


Feels Like: 81 °F
Forecast: 68 / 91 °F
Wind: 9 mph from East

Location: New Delhi Palam Airport

Current Time: Apr 1, 2015 at 11:36:39 PM

Latest Report: Apr 1, 2015 at 10:30 PM


Visibility: 2 mi

Pressure: 29.77 "Hg

Humidity: 51%

Dew point: 61 °F

Location of PanipatLocation

Historic Weather in Panipat — Graph

°F

Panipat temperature yesterday

Maximum temperature yesterday: 88 °F (at 3:30 PM)
Minimum temperature yesterday: 68 °F (at 3:00 AM)
Average temperature yesterday: 77 °F

Past Weeks' High & Low Weather Summary

 TemperatureHumidityPressure
High97 °F (Mar 26, 3:00 PM)100% (Mar 24, 5:00 AM)30.09 "Hg (Mar 24, 5:00 AM)
Low55 °F (Mar 18, 6:00 AM)20% (Mar 28, 4:00 PM)29.71 "Hg (Apr 1, 5:00 PM)
Average78 °F54%29.90 "Hg
* Reported Mar 17 9:30 PM — Apr 1 10:00 PM, Panipat, Weather by CustomWeather, © 2015

Note: Actual official high and low records may vary slightly from our data, if they occured in-between our weather recording intervals... More about our weather records

Advertising

Panipat weather history for previous 24 hours

 ConditionsComfort  
Time TempWeatherWind HumidityBarometerVisibility
10:00 PM
Wed, Apr 1
81 °FHaze.9 mph51%29.77 "Hg1 mi
9:30 PM81 °FHaze.8 mph51%29.77 "Hg1 mi
9:00 PM81 °FHaze.8 mph48%29.77 "Hg1 mi
8:30 PM81 °FHaze.7 mph48%29.74 "Hg1 mi
8:00 PM81 °FHaze.5 mph51%29.74 "Hg1 mi
7:30 PM82 °FPassing clouds.5 mph48%29.74 "Hg1 mi
7:00 PM84 °FScattered clouds.5 mph45%29.71 "Hg1 mi
6:30 PM86 °FScattered clouds.5 mph40%29.71 "Hg1 mi
6:00 PM90 °FScattered clouds.No wind33%29.71 "Hg2 mi
5:30 PM90 °FScattered clouds.2 mph36%29.71 "Hg2 mi
5:00 PM90 °FScattered clouds.5 mph33%29.71 "Hg2 mi
4:30 PM90 °FScattered clouds.5 mph31%29.74 "Hg2 mi
4:00 PM90 °FScattered clouds.5 mph29%29.74 "Hg2 mi
3:30 PM90 °FScattered clouds.5 mph33%29.74 "Hg2 mi
3:00 PM91 °FScattered clouds.5 mph32%29.77 "Hg2 mi
2:30 PM90 °FScattered clouds.3 mph33%29.77 "Hg2 mi
2:00 PM90 °FScattered clouds.6 mph33%29.77 "Hg2 mi
1:30 PM91 °FScattered clouds.3 mph32%29.80 "Hg2 mi
1:00 PM90 °FScattered clouds.3 mph33%29.80 "Hg2 mi
12:30 PM88 °FScattered clouds.5 mph40%29.83 "Hg2 mi
12:00 PM88 °FScattered clouds.5 mph40%29.83 "Hg2 mi
11:30 AM88 °FScattered clouds.5 mph40%29.86 "Hg2 mi
11:00 AM86 °FScattered clouds.5 mph46%29.86 "Hg2 mi
10:30 AM86 °FScattered clouds.5 mph46%29.86 "Hg2 mi
10:00 AM82 °FScattered clouds.6 mph48%29.86 "Hg2 mi
8:30 AM75 °FFog.No wind74%29.86 "Hg1 mi
7:30 AM72 °FFog.No wind83%29.83 "Hg1 mi
7:00 AM70 °FFog.No wind88%29.83 "Hg1 mi
6:30 AM70 °FFog.No wind83%29.83 "Hg1 mi
6:00 AM68 °FFog.No wind88%29.80 "Hg1 mi
4:30 AM68 °FFog.No wind88%29.80 "Hg1 mi
4:00 AM70 °FFog.No wind83%29.80 "Hg1 mi
3:30 AM70 °FFog.No wind88%29.80 "Hg1 mi
3:00 AM72 °FFog.No wind83%29.80 "Hg1 mi
2:30 AM72 °FFog.No wind83%29.83 "Hg1 mi
2:00 AM72 °FFog.No wind83%29.83 "Hg1 mi
1:30 AM72 °FFog.No wind83%29.83 "Hg1 mi
1:00 AM73 °FFog.No wind78%29.83 "Hg1 mi
12:30 AM73 °FFog.No wind78%29.86 "Hg1 mi
12:00 AM73 °FFog.No wind78%29.86 "Hg1 mi
11:30 PM
Tue, Mar 31
75 °FHaze.No wind74%29.86 "Hg2 mi
11:00 PM75 °FHaze.3 mph69%29.86 "Hg2 mi
Weather by CustomWeather, © 2015

See weather overviewHow to use our weather pages